#3269: Keeprite Furnace and Flow Through Humidifier Package by Peeks Heating & Air Conditioning in FIREPLACES/STOVES/FURNACES

This item is now closed! Congratulations Family! Your winning bid will be confirmed by email.

QuietComfort® 96 Gas Furnace G96VTN
Keep cozy when it’s cold outside with our high-efficiency gas furnace. Its reliable two-stage operation and variable-speed blower provide enhanced temperature control for your comfort. The variable-speed blower also means you’ll enjoy better summer dehumidification as your furnace works with your cooling unit to help pull moisture out of the air.
• Variable-speed blower motor and two-stage gas valve provide enhanced levels of even temperature control and comfort
• Dual fuel capable with a compatible heat pump and thermostat for energy-saving heating performance
• Fully insulated cabinet helps keep the heat moving to your ductwork
• Air purifier and humidifier compatible
• High temperature limit control prevents overheating
• 5-Year No Hassle Replacement™ Limited Warranty*
• 10-Year Parts Limited Warranty upon timely registration+
• Lifetime Heat Exchanger Limited Warranty upon timely registration‡
• FLOOR DRAIN REQUIRED
And

Honeywell Home Whole- Home Bypass Humidifier 12 GPD
Maintain your home’s most comfortable humidity level automatically with a Honeywell Home Whole-Home Humidifier. Proper humidity provides a more comfortable living environment at a lower temperature, so you can turn down your thermostat for energy savings. Humidity control in your home is a balancing act. The Honeywell Home Whole- Home Bypass Humidifier 12 GPD provides just the right amount of humidity so you can turn down your thermostat for energy savings. This humidifier is also easy on your budget while helping to prevent damage to hardwood floors and woodwork. Enhance and protect your home with a Honeywell Home Whole-Home Humidifier.

Basic installation included in the city of Lethbridge. If exact item isn't available due to shipping delays, it will be replaced with similar item of equal or more value. Out of town locations will have to be assessed separately. Must make contact with Peeks Heating and Air Conditioning to make arrangements to redeem certificate by March 2023.

Peeks Heating and Air Conditioning - Your Home Comfort Specialists

Current Bid: $4,325

Minimum Bid: $5

Item Value: $6,380

 

Provided By:
Peeks Heating & Air Conditioning




Ph: 403-328-7335

Bid Username Date/Time
$4,325 Family November 10, 2022 9:55:36pm
$4,300 RJ@1 November 10, 2022 9:51:22pm
$4,205 Mountain Man November 10, 2022 9:50:58pm
$4,200 RJ@1 November 10, 2022 9:50:58pm
$4,105 Mountain Man November 10, 2022 9:50:18pm
$4,100 RJ@1 November 10, 2022 9:50:18pm
$4,095 Mountain Man November 10, 2022 9:49:53pm
$4,090 RJ@1 November 10, 2022 9:49:53pm
$4,085 Mountain Man November 10, 2022 9:49:44pm
$4,080 RJ@1 November 10, 2022 9:49:44pm
$4,075 Mountain Man November 10, 2022 9:49:35pm
$4,070 RJ@1 November 10, 2022 9:49:35pm
$4,065 Mountain Man November 10, 2022 9:49:26pm
$4,060 RJ@1 November 10, 2022 9:49:25pm
$4,055 Mountain Man November 10, 2022 9:49:16pm
$4,050 RJ@1 November 10, 2022 9:49:16pm
$4,045 Mountain Man November 10, 2022 9:49:07pm
$4,040 RJ@1 November 10, 2022 9:49:07pm
$4,035 Mountain Man November 10, 2022 9:48:56pm
$4,030 RJ@1 November 10, 2022 9:48:56pm
$4,025 Mountain Man November 10, 2022 9:48:46pm
$4,020 RJ@1 November 10, 2022 9:48:46pm
$4,015 Mountain Man November 10, 2022 9:48:35pm
$4,010 RJ@1 November 10, 2022 9:48:35pm
$4,005 Mountain Man November 10, 2022 9:46:18pm
$4,000 RJ@1 November 10, 2022 9:42:54pm
$3,955 Mountain Man November 10, 2022 6:54:32pm
$3,950 RJ@1 November 10, 2022 6:54:32pm
$3,905 Mountain Man November 10, 2022 6:54:22pm
$3,900 RJ@1 November 10, 2022 6:54:22pm
$3,855 Mountain Man November 10, 2022 6:54:13pm
$3,850 RJ@1 November 10, 2022 6:54:13pm
$3,805 Mountain Man November 10, 2022 6:54:02pm
$3,800 RJ@1 November 10, 2022 6:54:02pm
$3,755 Mountain Man November 10, 2022 6:53:52pm
$3,750 RJ@1 November 10, 2022 6:53:52pm
$3,705 Mountain Man November 10, 2022 6:53:41pm
$3,700 RJ@1 November 10, 2022 6:53:41pm
$3,655 Mountain Man November 10, 2022 6:53:32pm
$3,650 RJ@1 November 10, 2022 6:53:32pm
$3,605 Mountain Man November 10, 2022 6:48:06pm
$3,600 RJ@1 November 10, 2022 6:48:06pm
$3,530 Mountain Man November 10, 2022 6:47:42pm
$3,525 RJ@1 November 10, 2022 6:47:42pm
$3,520 Mountain Man November 10, 2022 6:47:24pm
$3,515 RJ@1 November 10, 2022 6:47:24pm
$3,510 Mountain Man November 10, 2022 6:47:10pm
$3,505 RJ@1 November 10, 2022 6:47:10pm
$3,500 Mountain Man November 10, 2022 4:56:27pm
$3,495 RJ@1 November 10, 2022 4:56:27pm
$3,490 Mountain Man November 10, 2022 4:56:27pm
$3,485 RJ@1 November 10, 2022 4:56:27pm
$3,480 Mountain Man November 10, 2022 4:56:27pm
$3,475 RJ@1 November 10, 2022 4:56:27pm
$3,470 Mountain Man November 10, 2022 4:56:27pm
$3,465 RJ@1 November 10, 2022 4:56:27pm
$3,460 Mountain Man November 10, 2022 4:56:27pm
$3,455 RJ@1 November 10, 2022 4:56:27pm
$3,450 Mountain Man November 10, 2022 4:56:27pm
$3,445 RJ@1 November 10, 2022 4:56:27pm
$3,440 Mountain Man November 10, 2022 4:56:27pm
$3,435 RJ@1 November 10, 2022 4:56:27pm
$3,430 Mountain Man November 10, 2022 4:56:27pm
$3,425 RJ@1 November 10, 2022 4:56:27pm
$3,420 Mountain Man November 10, 2022 4:56:27pm
$3,415 RJ@1 November 10, 2022 4:56:27pm
$3,410 Mountain Man November 10, 2022 4:56:27pm
$3,405 RJ@1 November 10, 2022 4:56:27pm
$3,400 Mountain Man November 10, 2022 4:56:27pm
$3,395 RJ@1 November 10, 2022 4:56:27pm
$3,390 Mountain Man November 10, 2022 4:56:27pm
$3,385 RJ@1 November 10, 2022 4:56:26pm
$3,380 Mountain Man November 10, 2022 4:56:26pm
$3,375 RJ@1 November 10, 2022 4:56:26pm
$3,370 Mountain Man November 10, 2022 4:56:26pm
$3,365 RJ@1 November 10, 2022 4:56:26pm
$3,360 Mountain Man November 10, 2022 4:56:26pm
$3,355 RJ@1 November 10, 2022 4:56:26pm
$3,350 Mountain Man November 10, 2022 4:56:26pm
$3,345 RJ@1 November 10, 2022 4:56:26pm
$3,340 Mountain Man November 10, 2022 4:56:26pm
$3,335 RJ@1 November 10, 2022 4:56:26pm
$3,330 Mountain Man November 10, 2022 4:56:26pm
$3,325 RJ@1 November 10, 2022 4:56:26pm
$3,320 Mountain Man November 10, 2022 4:56:26pm
$3,315 RJ@1 November 10, 2022 4:56:26pm
$3,310 Mountain Man November 10, 2022 4:56:26pm
$3,305 RJ@1 November 10, 2022 4:56:26pm
$3,300 Mountain Man November 10, 2022 4:56:26pm
$3,295 RJ@1 November 10, 2022 4:56:26pm
$3,290 Mountain Man November 10, 2022 4:56:26pm
$3,285 RJ@1 November 10, 2022 4:56:26pm
$3,280 Mountain Man November 10, 2022 4:56:26pm
$3,275 RJ@1 November 10, 2022 4:56:26pm
$3,270 Mountain Man November 10, 2022 4:56:26pm
$3,265 RJ@1 November 10, 2022 4:56:26pm
$3,260 Mountain Man November 10, 2022 4:56:26pm
$3,255 RJ@1 November 10, 2022 4:56:26pm
$3,250 Mountain Man November 10, 2022 4:56:26pm
$3,245 RJ@1 November 10, 2022 4:56:26pm
$3,240 Mountain Man November 10, 2022 4:56:26pm
$3,235 RJ@1 November 10, 2022 4:56:26pm
$3,230 Mountain Man November 10, 2022 4:56:26pm
$3,225 RJ@1 November 10, 2022 4:56:26pm
$3,220 Mountain Man November 10, 2022 4:56:25pm
$3,215 RJ@1 November 10, 2022 4:56:25pm
$3,210 Mountain Man November 10, 2022 4:56:25pm
$3,205 RJ@1 November 10, 2022 4:56:25pm
$3,200 Mountain Man November 10, 2022 4:56:25pm
$3,195 RJ@1 November 10, 2022 4:56:25pm
$3,190 Mountain Man November 10, 2022 4:56:25pm
$3,185 RJ@1 November 10, 2022 4:56:25pm
$3,180 Mountain Man November 10, 2022 4:56:25pm
$3,175 RJ@1 November 10, 2022 4:56:25pm
$3,170 Mountain Man November 10, 2022 4:56:25pm
$3,165 RJ@1 November 10, 2022 4:56:25pm
$3,160 Mountain Man November 10, 2022 4:56:25pm
$3,155 RJ@1 November 10, 2022 4:56:25pm
$3,150 Mountain Man November 10, 2022 4:56:25pm
$3,145 RJ@1 November 10, 2022 4:56:25pm
$3,140 Mountain Man November 10, 2022 4:56:25pm
$3,135 RJ@1 November 10, 2022 4:56:25pm
$3,130 Mountain Man November 10, 2022 4:56:25pm
$3,125 RJ@1 November 10, 2022 4:56:25pm
$3,120 Mountain Man November 10, 2022 4:56:25pm
$3,115 RJ@1 November 10, 2022 4:56:25pm
$3,110 Mountain Man November 10, 2022 4:56:25pm
$3,105 RJ@1 November 10, 2022 8:17:20am
$3,100 Mountain Man November 10, 2022 8:17:20am
$3,050 RJ@1 November 7, 2022 9:08:03pm
$3,045 Nbrees November 7, 2022 9:08:03pm
$3,040 RJ@1 November 7, 2022 9:08:03pm
$3,035 Nbrees November 7, 2022 9:08:03pm
$3,030 RJ@1 November 7, 2022 9:08:03pm
$3,025 Nbrees November 7, 2022 9:08:03pm
$3,020 RJ@1 November 7, 2022 9:08:03pm
$3,015 Nbrees November 7, 2022 9:08:03pm
$3,010 RJ@1 November 7, 2022 9:08:02pm
$3,005 Nbrees November 7, 2022 9:00:03pm
$3,000 RJ@1 November 7, 2022 9:00:03pm
$2,995 Nbrees November 7, 2022 9:00:03pm
$2,990 RJ@1 November 7, 2022 9:00:03pm
$2,985 Nbrees November 7, 2022 9:00:03pm
$2,980 RJ@1 November 7, 2022 9:00:03pm
$2,975 Nbrees November 7, 2022 9:00:03pm
$2,970 RJ@1 November 7, 2022 9:00:03pm
$2,965 Nbrees November 7, 2022 9:00:03pm
$2,960 RJ@1 November 7, 2022 9:00:03pm
$2,955 Nbrees November 7, 2022 9:00:03pm
$2,950 RJ@1 November 7, 2022 9:00:03pm
$2,945 Nbrees November 7, 2022 9:00:03pm
$2,940 RJ@1 November 7, 2022 9:00:03pm
$2,935 Nbrees November 7, 2022 9:00:03pm
$2,930 RJ@1 November 7, 2022 9:00:03pm
$2,925 Nbrees November 7, 2022 9:00:03pm
$2,920 RJ@1 November 7, 2022 9:00:03pm
$2,915 Nbrees November 7, 2022 9:00:03pm
$2,910 RJ@1 November 7, 2022 9:00:03pm
$2,905 Nbrees November 7, 2022 9:00:03pm
$2,900 RJ@1 November 7, 2022 9:00:03pm
$2,895 Nbrees November 7, 2022 9:00:03pm
$2,890 RJ@1 November 7, 2022 9:00:03pm
$2,885 Nbrees November 7, 2022 9:00:03pm
$2,880 RJ@1 November 7, 2022 9:00:03pm
$2,875 Nbrees November 7, 2022 9:00:03pm
$2,870 RJ@1 November 7, 2022 9:00:03pm
$2,865 Nbrees November 7, 2022 9:00:03pm
$2,860 RJ@1 November 7, 2022 9:00:03pm
$2,855 Nbrees November 7, 2022 9:00:03pm
$2,850 RJ@1 November 7, 2022 9:00:03pm
$2,845 Nbrees November 7, 2022 9:00:03pm
$2,840 RJ@1 November 7, 2022 9:00:03pm
$2,835 Nbrees November 7, 2022 9:00:03pm
$2,830 RJ@1 November 7, 2022 9:00:03pm
$2,825 Nbrees November 7, 2022 9:00:03pm
$2,820 RJ@1 November 7, 2022 9:00:03pm
$2,815 Nbrees November 7, 2022 9:00:03pm
$2,810 RJ@1 November 7, 2022 9:00:03pm
$2,805 Nbrees November 7, 2022 9:00:03pm
$2,800 RJ@1 November 7, 2022 8:58:51pm
$2,795 Nbrees November 7, 2022 8:58:51pm
$2,790 RJ@1 November 7, 2022 8:58:51pm
$2,785 Nbrees November 7, 2022 8:58:51pm
$2,780 RJ@1 November 7, 2022 8:58:51pm
$2,775 Nbrees November 7, 2022 8:58:51pm
$2,770 RJ@1 November 7, 2022 8:58:51pm
$2,765 Nbrees November 7, 2022 8:58:51pm
$2,760 RJ@1 November 7, 2022 8:58:51pm
$2,755 Nbrees November 7, 2022 8:58:51pm
$2,750 RJ@1 November 7, 2022 8:58:51pm
$2,745 Nbrees November 7, 2022 8:58:51pm
$2,740 RJ@1 November 7, 2022 8:58:51pm
$2,735 Nbrees November 7, 2022 8:58:51pm
$2,730 RJ@1 November 7, 2022 8:58:51pm
$2,725 Nbrees November 7, 2022 8:58:51pm
$2,720 RJ@1 November 7, 2022 8:58:51pm
$2,715 Nbrees November 7, 2022 8:58:51pm
$2,710 RJ@1 November 7, 2022 8:58:51pm
$2,705 Nbrees November 7, 2022 8:58:51pm
$2,700 RJ@1 November 7, 2022 8:58:51pm
$2,695 Nbrees November 7, 2022 8:58:51pm
$2,690 RJ@1 November 7, 2022 8:58:51pm
$2,685 Nbrees November 7, 2022 8:58:51pm
$2,680 RJ@1 November 7, 2022 8:58:51pm
$2,675 Nbrees November 7, 2022 8:58:51pm
$2,670 RJ@1 November 7, 2022 8:58:51pm
$2,665 Nbrees November 7, 2022 8:58:51pm
$2,660 RJ@1 November 7, 2022 8:58:51pm
$2,655 Nbrees November 7, 2022 8:58:51pm
$2,650 RJ@1 November 7, 2022 8:58:51pm
$2,645 Nbrees November 7, 2022 8:58:51pm
$2,640 RJ@1 November 7, 2022 8:58:51pm
$2,635 Nbrees November 7, 2022 8:58:51pm
$2,630 RJ@1 November 7, 2022 8:58:51pm
$2,625 Nbrees November 7, 2022 8:58:51pm
$2,620 RJ@1 November 7, 2022 8:58:51pm
$2,615 Nbrees November 7, 2022 8:58:51pm
$2,610 RJ@1 November 7, 2022 8:58:51pm
$2,605 Nbrees November 7, 2022 8:58:51pm
$2,600 RJ@1 November 7, 2022 8:58:51pm
$2,595 Nbrees November 7, 2022 8:58:51pm
$2,590 RJ@1 November 7, 2022 8:58:51pm
$2,585 Nbrees November 7, 2022 8:58:51pm
$2,580 RJ@1 November 7, 2022 8:58:51pm
$2,575 Nbrees November 7, 2022 8:58:51pm
$2,570 RJ@1 November 7, 2022 8:58:51pm
$2,565 Nbrees November 7, 2022 8:58:51pm
$2,560 RJ@1 November 7, 2022 8:58:51pm
$2,555 Nbrees November 7, 2022 8:58:51pm
$2,550 RJ@1 November 7, 2022 8:58:51pm
$2,545 Nbrees November 7, 2022 8:58:51pm
$2,540 RJ@1 November 7, 2022 8:58:51pm
$2,535 Nbrees November 7, 2022 8:58:51pm
$2,530 RJ@1 November 7, 2022 8:58:51pm
$2,525 Nbrees November 7, 2022 8:58:51pm
$2,520 RJ@1 November 7, 2022 8:58:51pm
$2,515 Nbrees November 7, 2022 8:58:51pm
$2,510 RJ@1 November 7, 2022 8:58:51pm
$2,505 Nbrees November 7, 2022 8:58:50pm
$2,500 RJ@1 November 7, 2022 6:32:38pm
$2,495 Kclarke1986 November 7, 2022 6:32:38pm
$2,490 RJ@1 November 7, 2022 6:32:38pm
$2,485 Kclarke1986 November 7, 2022 6:32:38pm
$2,480 RJ@1 November 7, 2022 6:32:38pm
$2,475 Kclarke1986 November 7, 2022 6:32:38pm
$2,470 RJ@1 November 7, 2022 6:32:38pm
$2,465 Kclarke1986 November 7, 2022 6:32:38pm
$2,460 RJ@1 November 7, 2022 6:32:38pm
$2,455 Kclarke1986 November 7, 2022 6:32:38pm
$2,450 RJ@1 November 7, 2022 6:32:38pm
$2,445 Kclarke1986 November 7, 2022 6:32:38pm
$2,440 RJ@1 November 7, 2022 6:32:38pm
$2,435 Kclarke1986 November 7, 2022 6:32:38pm
$2,430 RJ@1 November 7, 2022 6:32:38pm
$2,425 Kclarke1986 November 7, 2022 6:32:38pm
$2,420 RJ@1 November 7, 2022 6:32:38pm
$2,415 Kclarke1986 November 7, 2022 6:32:38pm
$2,410 RJ@1 November 7, 2022 6:32:38pm
$2,405 Kclarke1986 November 7, 2022 6:32:38pm
$2,400 RJ@1 November 7, 2022 6:32:38pm
$2,395 Kclarke1986 November 7, 2022 6:32:38pm
$2,390 RJ@1 November 7, 2022 6:32:38pm
$2,385 Kclarke1986 November 7, 2022 6:32:38pm
$2,380 RJ@1 November 7, 2022 6:32:38pm
$2,375 Kclarke1986 November 7, 2022 6:32:38pm
$2,370 RJ@1 November 7, 2022 6:32:38pm
$2,365 Kclarke1986 November 7, 2022 6:32:38pm
$2,360 RJ@1 November 7, 2022 6:32:38pm
$2,355 Kclarke1986 November 7, 2022 6:32:38pm
$2,350 RJ@1 November 7, 2022 6:32:38pm
$2,345 Kclarke1986 November 7, 2022 6:32:38pm
$2,340 RJ@1 November 7, 2022 6:32:38pm
$2,335 Kclarke1986 November 7, 2022 6:32:38pm
$2,330 RJ@1 November 7, 2022 6:32:38pm
$2,325 Kclarke1986 November 7, 2022 6:32:38pm
$2,320 RJ@1 November 7, 2022 6:32:38pm
$2,315 Kclarke1986 November 7, 2022 6:32:38pm
$2,310 RJ@1 November 7, 2022 6:32:38pm
$2,305 Kclarke1986 November 7, 2022 6:32:38pm
$2,300 RJ@1 November 7, 2022 6:32:38pm
$2,295 Kclarke1986 November 7, 2022 6:32:38pm
$2,290 RJ@1 November 7, 2022 6:32:38pm
$2,285 Kclarke1986 November 7, 2022 6:05:22pm
$2,280 RJ@1 November 7, 2022 6:05:22pm
$2,275 Kclarke1986 November 7, 2022 2:46:39pm
$2,270 RJ@1 November 7, 2022 2:46:39pm
$2,265 Kclarke1986 November 7, 2022 2:45:23pm
$2,260 RJ@1 November 7, 2022 2:45:23pm
$2,255 Kclarke1986 November 4, 2022 1:56:40pm
$2,250 Family November 4, 2022 1:56:40pm
$2,025 Kclarke1986 November 2, 2022 9:04:19pm
$2,020 RJ@1 November 2, 2022 9:04:19pm
$2,015 Kclarke1986 October 29, 2022 8:08:10pm
$2,010 Snowman October 29, 2022 8:08:10pm
$2,005 Kclarke1986 October 28, 2022 9:32:51pm
$2,000 Snowman October 28, 2022 9:32:51pm
$1,755 Kclarke1986 October 28, 2022 9:32:22pm
$1,750 Snowman October 28, 2022 9:32:22pm
$1,505 Kclarke1986 October 28, 2022 9:32:05pm
$1,500 Snowman October 28, 2022 9:32:05pm
$1,255 Kclarke1986 October 28, 2022 9:31:47pm
$1,250 Snowman October 28, 2022 9:31:47pm
$1,005 Kclarke1986 October 28, 2022 9:31:27pm
$1,000 Snowman October 28, 2022 9:31:27pm
$955 Kclarke1986 October 28, 2022 9:31:09pm
$950 Snowman October 28, 2022 9:31:09pm
$905 Kclarke1986 October 28, 2022 9:30:51pm
$900 Snowman October 28, 2022 9:30:51pm
$855 Kclarke1986 October 28, 2022 9:30:35pm
$850 Snowman October 28, 2022 9:30:35pm
$830 Kclarke1986 October 28, 2022 9:30:16pm
$825 Snowman October 28, 2022 9:30:16pm
$815 Kclarke1986 October 28, 2022 9:29:39pm
$810 Snowman October 28, 2022 9:29:39pm
$805 Kclarke1986 October 28, 2022 8:32:22am
$800 anderson.andrew1385@gmail.com October 28, 2022 8:32:22am
$610 Kclarke1986 October 27, 2022 8:12:34pm
$605 Carlenna1 October 27, 2022 8:12:34pm
$600 Kclarke1986 October 27, 2022 8:12:34pm
$595 Carlenna1 October 27, 2022 8:12:34pm
$590 Kclarke1986 October 27, 2022 8:12:34pm
$585 Carlenna1 October 27, 2022 8:12:34pm
$580 Kclarke1986 October 27, 2022 8:12:34pm
$575 Carlenna1 October 27, 2022 8:12:34pm
$570 Kclarke1986 October 27, 2022 8:12:34pm
$565 Carlenna1 October 27, 2022 8:12:34pm
$560 Kclarke1986 October 27, 2022 8:12:34pm
$555 Carlenna1 October 27, 2022 8:12:34pm
$550 Kclarke1986 October 27, 2022 8:12:34pm
$545 Carlenna1 October 27, 2022 8:12:34pm
$540 Kclarke1986 October 27, 2022 8:12:34pm
$535 Carlenna1 October 27, 2022 8:12:34pm
$530 Kclarke1986 October 27, 2022 8:12:34pm
$525 Carlenna1 October 27, 2022 8:12:34pm
$520 Kclarke1986 October 27, 2022 8:12:07pm
$515 Carlenna1 October 27, 2022 8:12:07pm
$510 Kclarke1986 October 27, 2022 4:23:24pm
$505 bronwynk82 October 27, 2022 4:23:24pm
$500 Kclarke1986 October 27, 2022 4:23:16pm
$495 bronwynk82 October 27, 2022 4:23:16pm
$480 Kclarke1986 October 27, 2022 4:23:05pm
$475 bronwynk82 October 27, 2022 4:23:05pm
$455 Kclarke1986 October 27, 2022 4:22:59pm
$450 bronwynk82 October 27, 2022 4:22:59pm
$405 Kclarke1986 October 27, 2022 4:22:42pm
$400 bronwynk82 October 27, 2022 4:22:42pm
$350 Kclarke1986 October 27, 2022 4:22:31pm
$345 bronwynk82 October 27, 2022 4:22:31pm
$340 Kclarke1986 October 27, 2022 4:22:14pm
$335 bronwynk82 October 27, 2022 4:22:14pm
$325 Kclarke1986 October 27, 2022 8:15:52am
$300 Blue22 October 25, 2022 3:54:09pm
$5 RhumJungleFX October 24, 2022 4:47:01pm

All Winning Bids must be PAID in full by Friday, December 2, 2022 at 4:00pm! Spring 2023 Auction!Net is coming in May 2023, taking business consignments now, call for details, 403-329-0955.